This is the latest recevied weather packets stored in our database for station/object KR4DFQ. If no packets are shown the sender has not sent any weather packets the latest 10 day(s).
| Time | Temp. | Humidity | Pressure | Rain* | Wind** | Luminosity | Snow |
|---|---|---|---|---|---|---|---|
| 1787589407 | 33.89° C | 57% | 1018.1 hPa | 0 mm | - | 1067 W/m² | - |
| 1787589103 | 33.89° C | 56% | 1018.2 hPa | 0 mm | - | 1044 W/m² | - |
| 1787588798 | 33.89° C | 58% | 1018.2 hPa | 0 mm | - | 868 W/m² | - |
| 1787588495 | 33.89° C | 58% | 1018.1 hPa | 0 mm | - | 921 W/m² | - |
| 1787588194 | 34.44° C | 57% | 1018.3 hPa | 0 mm | - | 918 W/m² | - |
| 1787587889 | 33.89° C | 57% | 1018.4 hPa | 0 mm | - | 738 W/m² | - |
| 1787587585 | 34.44° C | 57% | 1018.4 hPa | 0 mm | - | 939 W/m² | - |
| 1787587285 | 34.44° C | 57% | 1018.2 hPa | 0 mm | - | 910 W/m² | - |
| 1787586979 | 34.44° C | 57% | 1018.3 hPa | 0 mm | - | 889 W/m² | - |
| 1787586674 | 34.44° C | 58% | 1018.3 hPa | 0 mm | - | 869 W/m² | - |
| 1787586369 | 34.44° C | 58% | 1018.4 hPa | 0 mm | - | 850 W/m² | - |
| 1787586065 | 34.44° C | 56% | 1018.5 hPa | 0 mm | - | 856 W/m² | - |
| 1787585761 | 34.44° C | 56% | 1018.4 hPa | 0 mm | - | 851 W/m² | - |
| 1787585456 | 33.89° C | 58% | 1018.3 hPa | 0 mm | - | 826 W/m² | - |
| 1787585155 | 33.89° C | 60% | 1018.2 hPa | 0 mm | - | 867 W/m² | - |
| 1787584851 | 33.33° C | 57% | 1018.4 hPa | 0 mm | - | 820 W/m² | - |
| 1787584550 | 33.33° C | 59% | 1018.4 hPa | 0 mm | - | 708 W/m² | - |
| 1787584244 | 33.89° C | 59% | 1018.5 hPa | 0 mm | - | 825 W/m² | - |
| 1787583943 | 33.89° C | 60% | 1018.5 hPa | 0 mm | - | 834 W/m² | - |
| 1787583639 | 33.89° C | 59% | 1018.4 hPa | 0 mm | - | 794 W/m² | - |
| 1787583338 | 33.89° C | 58% | 1018.5 hPa | 0 mm | - | 805 W/m² | - |
| 1787583037 | 33.33° C | 59% | 1018.5 hPa | 0 mm | - | 759 W/m² | - |
| 1787582732 | 32.78° C | 63% | 1018.3 hPa | 0 mm | - | 759 W/m² | - |
| 1787582429 | 32.22° C | 62% | 1018.3 hPa | 0 mm | - | 799 W/m² | - |
| 1787582124 | 32.78° C | 59% | 1018.2 hPa | 0 mm | - | 280 W/m² | - |
* Rain latest hour (hover to see other rain measurements)
** Current wind speed in m/s (hover to see current wind gust speed)